Presure
157 152 151 153 159 159 160 159 151 157 162 162 159 156 171 173 171 173 173 171 184 187 191 172 176 173 173 172 170 166 178 175 183 179 194 199 204 205 203 201 202 198 196
162 153 165 163 164 164 165 166 161 150 166 168 168 170 177 178 180 185 183 176 188 176 173 176 179 184 196 200 192 195 209 214 182 194 208 202 204 204 200 198 198 199 200
169 166 165 167 165 162 162 162 166 171 178 178 182 180 177 173 179 182 182 182 187 191 186 193 195 203 226 225 220 217 216 205 208 209 205 201 199 189 189 199 199 198 200
178 176 176 177 177 178 173 173 176 179 177 175 179 188 191 196 196 200 195 194 191 202 210 227 226 227 225 221 215 209 212 213 211 209 204 204 196 199 199 200 195 199 197
176 160 150 151 164 139 140 142 145 168 182 187 196 177 174 154 186 191 192 182 210 236 221 180 201 186 212 188 213 214 189 205 178 191 200 203 204 199 201 200 201 197 197
183 158 180 172 163 170 176 175 173 178 180 153 170 189 192 189 196 195 231 237 226 186 234 227 223 201 224 222 215 213 212 205 204 204 203 203 201 198 198 199 198 200 201
190 162 181 184 179 174 178 181 186 187 188 187 189 188 204 205 202 207 176 228 220 224 226 204 212 206 208 211 212 210 210 209 210 209 206 202 201 200 196 199 200 199 204
183 183 184 185 188 189 188 185 187 192 197 196 208 212 213 219 187 178 188 202 220 217 221 220 218 219 224 223 222 220 216 208 207 212 210 212 212 210 207 209 209 213 222
201 195 194 191 188 195 195 192 197 177 174 178 182 211 186 180 174 215 222 226 230 232 235 241 237 234 234 235 232 233 232 228 227 219 221 235 235 233 232 232 226 226 169
192 199 156 205 205 206 206 183 199 202 204 205 200 196 207 219 223 235 229 187 245 242 261 115 287 193 280 277 270 261 259 257 249 246 245 247 239 238 233 227 222 228 202
225 229 231 213 183 227 226 222 224 233 197 224 219 223 236 131 233 185 248 297 277 311 304 300 295 300 292 288 285 277 264 255 250 248 244 240 237 235 232 230 207 211 212
237 235 226 219 229 231 235 229 222 224 216 222 231 223 237 234 240 297 294 278 273 358 388 370 384 400 386 355 299 278 275 279 276 265 254 248 242 234 229 227 227 227 229
221 223 228 229 233 234 225 224 231 228 233 224 231 233 241 283 289 275 285 247 250 334 247 350 337 374 376 377 397 389 353 283 272 262 255 259 257 258 255 251 250 251 250
232 137 228 236 236 233 231 232 155 225 229 229 249 287 275 280 286 274 249 259 248 285 278 351 331 340 345 355 337 404 449 388 310 264 262 258 248 247 243 244 241 244 242
237 235 231 229 230 230 233 237 253 203 268 280 290 265 265 264 270 257 253 225 227 233 361 329 323 328 351 373 336 376 360 339 368 326 297 257 254 252 248 244 238 252 253
242 250 259 251 254 260 260 265 265 272 280 273 258 257 254 265 266 249 242 237 239 268 225 238 325 320 348 331 332 338 324 294 305 355 288 273 246 247 241 241 251 241 251
245 240 253 256 255 265 266 262 257 270 261 250 250 248 260 262 251 228 265 263 262 225 264 226 249 276 310 321 305 296 302 310 316 291 281 270 247 242 240 253 253 251 245
250 246 251 251 258 252 245 268 256 252 249 241 241 260 258 254 251 261 254 245 238 241 256 251 258 233 256 264 283 296 297 295 291 286 281 276 271 258 257 256 267 276 265
248 257 260 260 277 274 256 255 246 244 236 244 243 262 258 248 254 222 227 237 233 227 223 219 222 240 243 246 238 245 248 250 247 255 266 268 301 302 239 236 228 226 230
262 256 266 270 261 244 242 233 234 246 236 235 256 256 242 245 258 245 228 215 225 238 232 220 222 241 244 242 233 231 243 233 223 236 233 217 223 219 220 221 223 218 232
258 261 262 240 246 235 239 229 235 258 243 243 260 232 245 251 244 215 232 223 238 212 225 229 220 231 243 241 241 241 240 237 233 234 231 230 229 229 229 227 227 231 228
256 248 229 228 237 234 243 237 250 242 238 245 267 225 211 250 223 235 226 225 210 203 207 206 235 232 234 230 232 230 225 224 224 224 227 229 233 234 233 230 230 233 233
227 217 234 236 236 225 232 235 247 243 217 203 204 202 221 226 233 232 230 229 216 203 230 214 230 232 229 229 229 227 226 223 220 219 218 216 221 224 226 224 223 218 216
227 236 233 233 227 234 240 234 245 228 241 205 203 204 221 225 228 228 235 226 216 206 219 212 215 223 220 225 227 227 223 219 218 225 226 227 224 227 224 218 223 152 318
237 233 236 229 227 228 245 233 252 235 231 230 224 222 220 226 227 228 232 230 221 210 221 213 215 221 214 221 229 226 228 230 225 222 223 228 228 232 180 208 215 318 296
237 226 243 226 227 235 239 230 279 236 221 217 240 235 231 231 229 227 231 242 227 212 208 210 207 219 227 218 217 223 223 223 222 230 228 232 224 173 232 275 299 316 253
Wind_Speed
99 92 86 92 97 98 99 100 85 94 100 102 104 98 109 106 104 103 102 103 102 103 107 94 95 91 93 92 92 89 94 93 94 91 96 87 86 83 84 81 81 81 80
99 88 102 102 104 104 102 105 99 84 106 108 107 105 108 106 103 103 100 97 103 96 96 99 101 102 110 105 102 97 102 93 92 96 87 87 85 87 83 82 82 83 83
99 98 98 101 102 100 99 99 100 103 107 105 104 103 102 94 99 101 100 99 103 105 105 110 110 111 101 95 95 94 92 95 93 91 88 89 87 87 87 86 85 84 86
103 102 103 105 105 106 105 104 104 104 102 99 100 109 111 112 111 111 107 105 102 110 114 106 103 99 97 94 94 94 94 94 92 92 90 89 89 90 89 88 87 87 87
96 82 76 78 89 72 73 73 74 91 107 109 114 91 86 79 103 107 107 96 116 103 104 93 97 95 98 94 98 96 94 96 91 94 94 92 91 91 92 90 92 89 92
99 83 102 95 87 93 101 102 101 103 102 77 91 109 112 108 113 111 113 102 108 99 103 104 102 95 100 99 99 100 97 98 99 98 98 96 94 92 92 94 94 97 99
108 82 101 105 102 97 103 107 109 106 107 108 110 108 118 116 111 106 96 103 106 105 104 104 108 106 105 103 101 101 101 101 102 103 102 101 101 98 94 97 98 99 101
101 102 102 103 107 109 109 104 107 111 114 115 118 117 115 114 104 99 104 110 107 107 108 110 111 113 115 115 113 109 107 104 105 105 104 106 105 103 101 102 102 102 100
115 111 111 109 106 113 113 109 113 96 93 95 98 108 101 99 96 101 105 108 110 112 113 115 117 121 122 123 121 119 116 114 114 110 112 111 107 106 102 96 93 87 80
104 110 79 115 116 117 117 98 110 112 110 105 108 107 103 103 102 106 109 85 116 117 116 42 116 75 115 114 117 117 114 111 111 108 106 100 100 97 95 91 85 87 89
110 110 110 107 98 109 109 112 111 102 104 101 103 101 99 56 103 83 118 101 83 97 100 103 105 108 109 109 110 113 114 113 109 108 106 101 97 94 92 88 86 88 91
103 104 104 106 104 101 98 98 102 100 101 99 96 97 102 103 111 85 80 83 86 68 61 61 61 66 75 93 109 109 107 106 104 105 106 103 99 95 93 92 92 92 94
98 97 98 98 98 96 95 95 98 96 97 93 99 101 99 81 71 73 66 84 86 62 98 56 55 52 48 55 62 79 95 106 103 99 97 92 91 86 84 85 85 84 85
95 52 96 96 93 92 94 95 61 94 97 101 98 72 71 64 57 58 71 67 76 48 65 44 38 35 35 38 37 42 44 64 90 96 90 85 84 81 81 77 79 79 83
88 89 89 89 90 92 95 99 96 66 76 68 56 61 61 60 52 52 49 65 64 59 44 38 32 29 25 28 21 32 23 35 47 72 81 80 76 74 73 74 76 74 75
83 83 79 81 82 76 74 71 68 64 56 52 56 57 57 51 46 46 48 51 46 43 45 40 29 30 28 24 21 16 16 29 40 45 59 68 66 66 69 71 71 74 71
75 75 74 69 67 66 62 59 57 47 50 50 53 53 51 43 40 46 37 33 37 40 37 42 38 47 35 27 21 17 13 14 21 33 41 53 61 62 65 66 65 66 69
66 65 64 59 58 56 56 42 48 50 47 49 51 47 44 39 37 36 32 31 35 37 32 32 36 34 35 36 32 21 10 8 16 26 36 46 53 59 60 57 54 59 59
62 58 56 50 41 37 42 42 51 47 47 47 47 38 35 32 35 35 34 31 29 31 35 34 33 31 26 23 21 18 16 13 9 10 9 14 35 41 36 38 44 49 53
47 49 39 36 34 40 43 50 50 46 43 43 38 36 34 32 30 26 30 30 31 30 28 30 31 29 26 26 24 19 20 14 20 17 20 31 32 38 42 46 51 56 60
37 35 33 34 34 41 42 50 45 39 40 38 36 33 34 34 27 31 28 28 31 31 33 34 35 37 33 31 28 25 24 23 23 26 28 32 36 40 45 50 56 62 66
33 30 35 39 37 40 39 44 40 37 35 34 32 30 30 30 31 30 30 29 30 33 34 36 35 36 35 35 34 33 32 33 34 35 37 39 42 45 50 55 61 66 71
32 40 34 35 36 42 39 39 36 36 30 29 29 32 33 33 31 33 33 31 32 35 33 38 36 35 36 37 37 37 37 38 40 42 45 47 51 54 57 60 65 68 72
34 32 34 37 40 39 36 36 35 33 33 32 33 33 34 35 35 35 34 33 34 37 37 39 40 38 40 39 39 38 39 41 44 46 49 52 55 59 61 64 69 57 70
29 33 34 37 39 37 34 35 34 33 33 33 34 35 36 37 37 37 36 34 34 38 38 39 40 40 43 43 42 43 45 46 47 50 54 58 61 64 55 66 65 69 65
31 35 31 36 39 37 34 33 29 33 34 34 35 37 37 38 39 39 38 37 35 38 40 40 42 42 42 46 47 47 49 51 55 57 59 63 64 59 74 75 73 69 66
Wind_Direction
246 251 254 255 255 257 258 260 266 268 267 267 267 271 269 271 273 274 276 277 280 282 285 282 284 283 284 285 286 284 287 288 291 292 296 296 295 295 295 298 298 297 298
244 247 248 252 254 257 260 262 263 265 263 264 267 271 272 274 276 278 280 280 283 282 283 284 285 287 290 289 290 288 290 289 290 292 292 293 294 293 295 295 295 296 297
245 248 250 252 254 256 259 261 264 264 265 268 270 270 273 275 279 281 282 282 283 285 285 286 288 289 289 287 287 287 287 288 289 288 290 290 291 291 291 293 294 295 297
244 246 249 251 254 256 258 260 263 265 268 269 272 274 276 279 280 282 283 283 284 286 288 287 287 287 287 286 286 286 287 287 287 288 288 289 289 290 291 292 291 294 293
247 250 252 255 257 261 263 264 265 268 270 272 273 278 279 273 283 284 285 284 288 287 287 283 285 285 286 286 286 285 286 286 289 287 287 288 287 288 290 291 292 293 294
248 248 251 255 258 261 262 264 267 269 272 272 276 278 280 281 282 284 285 284 285 284 288 287 286 285 284 283 282 283 283 283 284 285 285 286 288 288 289 291 291 292 292
249 251 255 255 257 261 263 265 267 270 272 275 276 277 278 280 282 283 282 284 284 286 286 286 284 285 284 282 281 282 282 282 283 283 284 285 285 286 287 287 289 289 290
252 254 256 258 259 260 262 267 269 269 271 273 274 276 278 280 281 283 284 283 285 284 284 284 284 284 283 282 282 281 280 280 280 279 280 279 280 281 281 283 286 287 289
250 253 255 258 260 261 263 266 267 269 271 273 276 276 278 280 281 284 284 285 284 283 281 280 280 281 282 281 281 280 278 277 276 276 276 276 276 276 278 280 282 282 284
253 254 256 257 259 261 262 266 267 268 271 273 275 277 280 280 284 286 285 286 286 285 284 284 278 275 272 270 271 272 272 271 271 272 272 271 272 273 275 278 281 278 272
251 253 255 257 260 262 262 264 266 271 273 276 276 278 285 277 286 286 288 289 290 287 283 279 276 272 269 266 265 264 265 266 267 268 269 270 270 270 272 271 272 273 274
256 257 256 257 260 263 267 266 269 272 272 276 282 280 285 285 287 290 294 294 291 300 296 290 286 276 268 263 265 264 262 261 261 262 264 265 267 270 272 272 272 271 271
256 259 262 264 266 269 269 272 277 277 280 278 283 284 286 287 291 293 293 291 296 301 296 292 289 284 280 275 269 263 254 258 259 259 261 262 265 267 266 267 268 269 268
256 256 261 264 268 269 271 273 273 276 279 281 282 288 286 291 293 290 288 288 291 330 309 311 297 300 292 275 282 276 264 250 248 257 258 259 263 265 267 267 268 269 270
254 258 261 263 267 269 270 270 273 276 281 283 286 283 287 291 287 289 295 293 293 302 334 336 334 329 316 302 309 291 231 257 256 241 248 257 261 264 267 268 270 272 270
255 258 260 261 264 267 270 274 277 278 282 282 281 284 289 287 290 292 296 299 309 337 317 333 4 10 352 352 356 351 219 244 250 244 245 251 260 263 267 271 272 274 274
253 257 260 263 267 270 274 275 276 275 278 279 282 286 287 288 292 287 307 316 327 316 352 329 352 26 21 26 15 7 337 287 256 244 249 252 258 263 268 270 270 272 275
254 258 261 266 270 270 274 272 269 271 276 281 284 283 281 292 295 302 305 309 318 327 345 350 4 343 21 34 34 29 0 300 271 258 255 257 259 265 269 278 274 272 284
255 259 263 266 269 263 260 266 269 273 278 282 284 279 282 291 296 292 298 308 317 322 326 330 336 353 359 9 359 17 19 23 358 356 310 300 271 270 274 277 279 280 281
255 258 264 258 256 258 261 265 272 280 278 282 277 276 281 289 294 292 298 305 315 319 324 324 332 344 349 347 336 326 341 307 291 299 289 284 280 279 279 279 282 281 287
256 257 253 251 258 259 262 267 274 275 277 283 279 278 281 288 286 293 300 305 311 312 323 330 326 335 343 342 340 338 336 329 321 318 313 308 301 298 297 297 296 298 297
248 248 248 254 258 262 265 269 274 275 276 281 278 281 286 287 289 292 296 301 303 306 312 315 333 334 335 333 331 327 325 323 321 317 313 309 304 301 299 297 296 296 297
242 248 253 258 263 261 265 272 275 274 270 275 281 284 289 288 289 293 297 304 307 307 319 318 327 328 328 327 326 324 322 319 317 314 312 310 307 304 302 301 300 303 304
250 253 255 259 260 267 273 274 278 269 274 273 277 283 288 288 289 293 295 303 304 307 312 317 322 323 324 323 322 321 318 315 312 310 308 305 304 305 305 306 306 308 309
255 254 262 256 260 269 278 274 280 273 274 276 278 282 287 286 290 293 294 298 301 305 310 315 318 318 320 320 317 317 315 312 311 311 310 309 309 309 290 309 310 315 311
258 253 265 260 267 276 283 276 290 275 274 277 277 278 281 283 286 289 290 289 298 303 309 312 314 317 315 316 317 317 316 315 314 314 313 312 313 308 316 319 320 317 313